[[{"header":{"parameterUnit":"m.s-1","parameterCategory":1,"la1":30.2991,"la2":30.254,"lo1":-89.0895,"lo2":-89.0444,"dy":0.0017,"dx":0.0017,"nx":28,"ny":28,"refTime":"2025-04-10T09:00:00:Z","depth":0,"parameterNumber":2,"parameterNumberName":"U-component_of_WINDS"},"data":[0,0,0,0,0,0,0,0,0,0,0,0,0,0,0,0,0,0,0,0,0,0,0,0,0,0,0,0,0,0,0,0,0,0,0,0,0,0,0,0,0,0,0,0,0,0,0,0,0,0,0,0,0,0,0,0,0,0,0.7733,0.7732,0,0.7701,0.7701,0.77,0.7706,0.7706,0.7707,0.7708,0.7671,0.7669,0.7668,0,0,0,0,0,0,0,0,0,0,0,0,0,0.7795,0.7794,0.7733,0.7732,0.7732,0.7701,0.7701,0.77,0.7706,0.7706,0.7707,0.7708,0.7671,0.7669,0.7668,0,0,0,0,0,0,0,0,0,0,0,0,0,0.7766,0.7794,0.7733,0.7731,0.7731,0.7701,0.77,0.77,0.7706,0.7707,0.7707,0.7708,0.7672,0.767,0.7667,0.7636,0,0,0.766,0.7659,0,0,0,0,0,0,0,0,0.7768,0.7764,0.7732,0.7731,0.7731,0.7708,0.7709,0.7678,0.7705,0.7715,0.7708,0.7709,0.7682,0.7679,0.7671,0.7634,0.7633,0.766,0.7659,0.7658,0.7657,0,0,0,0,0,0,0,0.777,0.7765,0.772,0.7731,0.7731,0.7731,0.7728,0.7703,0.7694,0.7714,0.7715,0.7711,0.7682,0.7673,0.767,0.7632,0.766,0.7658,0.7657,0.7656,0.7567,0.7567,0,0,0,0,0,0,0.7773,0.7767,0.7721,0.7719,0.7752,0.7729,0.7726,0.7715,0.7694,0.7692,0.771,0.7711,0.7677,0.7673,0.7669,0.763,0.7658,0.7656,0.7654,0.7568,0.7567,0.7566,0,0,0,0,0,0,0.7774,0.7769,0.7722,0.7743,0.7737,0.7727,0.7715,0.7714,0.7705,0.7691,0.7689,0.7703,0.7677,0.7672,0.7644,0.7629,0.7655,0.7653,0.757,0.7568,0.7567,0.7553,0,0,0,0,0,0,0.7776,0.7769,0.7758,0.7743,0.7736,0.7699,0.7714,0.7712,0.7701,0.7702,0.7684,0.7682,0.7678,0.7648,0.7642,0.7626,0.7651,0.7571,0.7569,0.7567,0.7555,0.7551,0.7548,0,0,0,0,0,0.7778,0.7754,0.7757,0.7752,0.7722,0.7698,0.7694,0.7691,0.77,0.7688,0.768,0.7683,0.7632,0.7645,0.7638,0.7622,0.7572,0.7569,0.7567,0.7556,0.7552,0.7548,0,0,0,0,0,0,0.7766,0.7752,0.7755,0.7726,0.7714,0.7699,0.7684,0.7686,0.767,0.7671,0.7667,0.7663,0.7634,0.7625,0.764,0.7591,0.7603,0.76,0.7597,0.7593,0.759,0.7591,0.7649,0,0,0,0,0,0.776,0.7743,0.7732,0.7707,0.7701,0.7694,0.7683,0.7682,0.7668,0.7662,0.7652,0.7637,0.7618,0.7605,0.7587,0.7554,0.755,0.754,0.7537,0.7534,0.753,0.7512,0.7507,0.7559,0.7559,0.7559,0,0,0.7747,0.7738,0.7727,0.7705,0.7695,0.7676,0.7689,0.7669,0.7654,0.7659,0.7632,0.7624,0.7607,0.7577,0.7563,0.7569,0.7516,0.7531,0.7529,0.7527,0.7509,0.7505,0.75,0.7557,0.7558,0.7558,0,0,0.7714,0.7706,0.7684,0.7675,0.766,0.7656,0.7651,0.7636,0.7631,0.7605,0.7608,0.7591,0.7558,0.7546,0.7535,0.75,0.7501,0.7494,0.7476,0.7458,0.7454,0.745,0.7436,0.7432,0.7491,0.749,0.749,0,0.7699,0.7673,0.7672,0.7652,0.7642,0.7647,0.7624,0.7615,0.7594,0.7586,0.7594,0.7553,0.7543,0.7509,0.7501,0.7493,0.7485,0.7495,0.7455,0.7451,0.7448,0.7434,0.7429,0.749,0.749,0.749,0.749,0,0.7655,0.7637,0.7621,0.7602,0.7591,0.7569,0.7565,0.7552,0.7553,0.7547,0.752,0.7508,0.7487,0.7479,0.7479,0.7446,0.745,0.7456,0.7469,0.7442,0.7429,0.7424,0.7488,0.7489,0.7489,0.7489,0,0,0.7611,0.7594,0.7588,0.758,0.7565,0.755,0.7529,0.7511,0.75,0.7486,0.7467,0.744,0.7447,0.7435,0.7433,0.7418,0.7389,0.7426,0.7426,0.7418,0.7351,0.7345,0.7339,0.7391,0.739,0.739,0.7352,0,0.7575,0.7539,0.7539,0.7505,0.7487,0.7493,0.7474,0.7463,0.7457,0.7441,0.7435,0.7415,0.7426,0.7419,0.7404,0.7396,0.7375,0.7399,0.7372,0.7371,0.7374,0.7333,0.7326,0.7291,0.7347,0.7346,0.7346,0,0.7528,0.7514,0.7479,0.7468,0.746,0.7444,0.7427,0.7411,0.7398,0.7395,0.7383,0.7384,0.7362,0.7377,0.7345,0.7361,0.735,0.7345,0.7344,0.7339,0.7355,0.7326,0.728,0.7274,0.7338,0.7339,0.7339,0,0.7498,0.7471,0.7446,0.7439,0.7425,0.7413,0.7407,0.7395,0.7384,0.7369,0.7361,0.7344,0.7333,0.7319,0.7315,0.7326,0.7283,0.7298,0.7279,0.7279,0.7267,0.7267,0.7217,0.7264,0.7264,0.7264,0.7264,0,0.7457,0.7434,0.7432,0.7417,0.7392,0.7392,0.7367,0.7362,0.7351,0.7334,0.7338,0.7322,0.7318,0.7301,0.7298,0.7271,0.7267,0.7263,0.7262,0.7262,0.7262,0.7253,0.7254,0.7262,0.7263,0.7263,0.7263,0,0.7417,0.7415,0.7389,0.7379,0.7375,0.7358,0.7348,0.7333,0.7329,0.7307,0.7302,0.7296,0.7276,0.7271,0.7247,0.7245,0.7213,0.7215,0.7217,0.7217,0.7198,0.7199,0.7138,0.713,0.7183,0.7183,0.7183,0,0.739,0.7374,0.7362,0.7352,0.7345,0.7328,0.7317,0.7317,0.7306,0.729,0.7277,0.7258,0.7242,0.7209,0.7201,0.7183,0.7184,0.7164,0.7181,0.7181,0.7181,0.7182,0.718,0.716,0.7159,0.7159,0.7158,0,0.7342,0.7342,0.7327,0.7312,0.73,0.7287,0.7276,0.7267,0.7265,0.7251,0.7232,0.722,0.7196,0.7176,0.7158,0.715,0.7153,0.7154,0.7148,0.7146,0.7148,0.7145,0.7207,0.7154,0.7155,0.7155,0.7155,0.7155,0.7307,0.7292,0.7282,0.7265,0.7257,0.7246,0.7232,0.7227,0.7211,0.7192,0.7193,0.7172,0.7159,0.7136,0.7127,0.7109,0.7115,0.7107,0.7105,0.7102,0.71,0.7153,0.7106,0.7106,0.7106,0.7106,0.7106,0,0.7257,0.7252,0.7237,0.7221,0.7208,0.7215,0.7202,0.719,0.7171,0.716,0.7146,0.7123,0.7104,0.7096,0.7078,0.7065,0.7066,0.706,0.706,0.7058,0.7096,0.7102,0.7059,0.706,0.706,0.706,0.706,0.706,0.723,0.7205,0.7205,0.7176,0.717,0.715,0.7142,0.7132,0.7124,0.7099,0.7084,0.7079,0.7069,0.705,0.7033,0.7031,0.7023,0.7016,0.7015,0.705,0.7055,0.7059,0.7065,0.7015,0.7015,0.6977,0.6977,0.6977]},{"header":{"parameterUnit":"m.s-1","parameterCategory":1,"la1":30.2991,"la2":30.254,"lo1":-89.0895,"lo2":-89.0444,"dy":0.0017,"dx":0.0017,"nx":28,"ny":28,"refTime":"2025-04-10T09:00:00:Z","depth":0,"parameterNumber":3,"parameterNumberName":"V-component_of_WINDS"},"data":[0,0,0,0,0,0,0,0,0,0,0,0,0,0,0,0,0,0,0,0,0,0,0,0,0,0,0,0,0,0,0,0,0,0,0,0,0,0,0,0,0,0,0,0,0,0,0,0,0,0,0,0,0,0,0,0,0,0,-6.1297,-6.1299,0,-6.1442,-6.1444,-6.1445,-6.1358,-6.1354,-6.135,-6.1346,-6.149,-6.1498,-6.1506,0,0,0,0,0,0,0,0,0,0,0,0,0,-6.0942,-6.0949,-6.1297,-6.1299,-6.1301,-6.1442,-6.1444,-6.1446,-6.1359,-6.1354,-6.1348,-6.1344,-6.1488,-6.1497,-6.1506,0,0,0,0,0,0,0,0,0,0,0,0,0,-6.1092,-6.0951,-6.1297,-6.1275,-6.1274,-6.1441,-6.1444,-6.1446,-6.136,-6.1353,-6.1347,-6.1341,-6.1485,-6.1496,-6.1508,-6.1704,0,0,-6.1543,-6.1548,0,0,0,0,0,0,0,0,-6.1084,-6.1106,-6.1276,-6.1276,-6.1276,-6.1376,-6.1371,-6.1533,-6.1361,-6.1327,-6.1345,-6.1338,-6.1457,-6.1471,-6.1511,-6.1711,-6.1717,-6.1544,-6.1551,-6.1556,-6.1559,0,0,0,0,0,0,0,-6.1074,-6.1099,-6.1354,-6.1279,-6.1279,-6.1256,-6.127,-6.1402,-6.1425,-6.133,-6.1324,-6.1342,-6.1456,-6.15,-6.1514,-6.1719,-6.1544,-6.1554,-6.1561,-6.1566,-6.2087,-6.2094,0,0,0,0,0,0,-6.1065,-6.1091,-6.135,-6.1359,-6.1163,-6.1268,-6.1284,-6.135,-6.1424,-6.1429,-6.1347,-6.1337,-6.1484,-6.1501,-6.1519,-6.1754,-6.1556,-6.1567,-6.1574,-6.2081,-6.2089,-6.2096,0,0,0,0,0,0,-6.1058,-6.1089,-6.1344,-6.1223,-6.1254,-6.128,-6.1355,-6.1356,-6.1401,-6.1437,-6.144,-6.1389,-6.1479,-6.1502,-6.1659,-6.1758,-6.1572,-6.1583,-6.2073,-6.2083,-6.2093,-6.2227,0,0,0,0,0,0,-6.1048,-6.1087,-6.1163,-6.1226,-6.1261,-6.1484,-6.1361,-6.1363,-6.1421,-6.141,-6.1477,-6.1482,-6.1476,-6.1642,-6.1671,-6.1771,-6.1592,-6.2064,-6.2077,-6.2089,-6.2214,-6.2241,-6.2264,0,0,0,0,0,-6.1036,-6.1195,-6.1168,-6.1199,-6.1357,-6.1489,-6.1509,-6.1501,-6.143,-6.1506,-6.1529,-6.148,-6.1743,-6.1659,-6.169,-6.1795,-6.2057,-6.2073,-6.2088,-6.2203,-6.2235,-6.2263,0,0,0,0,0,0,-6.1142,-6.1202,-6.1173,-6.1357,-6.1419,-6.1474,-6.157,-6.1535,-6.1618,-6.1604,-6.1588,-6.1604,-6.1768,-6.1797,-6.1703,-6.1989,-6.1889,-6.1911,-6.1965,-6.1996,-6.2021,-6.2011,-6.1601,0,0,0,0,0,-6.1187,-6.1291,-6.1337,-6.1495,-6.1528,-6.1544,-6.1602,-6.159,-6.1652,-6.1678,-6.1713,-6.1775,-6.1871,-6.1935,-6.2026,-6.2217,-6.223,-6.2305,-6.233,-6.235,-6.237,-6.2473,-6.2507,-6.2147,-6.2147,-6.2147,0,0,-6.1281,-6.1327,-6.1393,-6.1518,-6.1564,-6.1672,-6.1567,-6.1684,-6.1763,-6.1695,-6.1846,-6.1874,-6.1942,-6.2117,-6.2196,-6.2146,-6.2472,-6.237,-6.2385,-6.2395,-6.2493,-6.2527,-6.2557,-6.2158,-6.2156,-6.2154,0,0,-6.1507,-6.1552,-6.1688,-6.1737,-6.181,-6.1819,-6.1852,-6.1913,-6.1929,-6.208,-6.2032,-6.2124,-6.2291,-6.2342,-6.2389,-6.2634,-6.2592,-6.2663,-6.2794,-6.2895,-6.2923,-6.2948,-6.3036,-6.3068,-6.2683,-6.2683,-6.2684,0,-6.1614,-6.1775,-6.1763,-6.1885,-6.1941,-6.1885,-6.2023,-6.207,-6.2168,-6.2208,-6.2151,-6.2359,-6.24,-6.2587,-6.2647,-6.2687,-6.2723,-6.2656,-6.292,-6.2945,-6.2968,-6.3052,-6.3085,-6.2692,-6.2691,-6.269,-6.2689,0,-6.1903,-6.2015,-6.2117,-6.2214,-6.2281,-6.241,-6.2417,-6.2486,-6.2468,-6.2483,-6.2637,-6.2685,-6.2785,-6.2828,-6.2811,-6.3012,-6.2979,-6.2922,-6.282,-6.3011,-6.3089,-6.3121,-6.2704,-6.2701,-6.2698,-6.2696,0,0,-6.2201,-6.229,-6.2328,-6.2371,-6.2446,-6.2532,-6.2658,-6.2757,-6.2817,-6.2885,-6.2991,-6.3133,-6.308,-6.3134,-6.3122,-6.3211,-6.3402,-6.3142,-6.3143,-6.3189,-6.3626,-6.367,-6.3707,-6.3374,-6.338,-6.3384,-6.3621,0,-6.2432,-6.2654,-6.2647,-6.2853,-6.2956,-6.2904,-6.3014,-6.3072,-6.3089,-6.3178,-6.3196,-6.3298,-6.322,-6.3253,-6.3338,-6.3361,-6.3489,-6.3343,-6.3471,-6.3476,-6.3457,-6.3748,-6.3795,-6.4016,-6.3651,-6.3657,-6.366,0,-6.2732,-6.2812,-6.303,-6.309,-6.3133,-6.3232,-6.3321,-6.3407,-6.3471,-6.3477,-6.3538,-6.3511,-6.3638,-6.3533,-6.3706,-6.3607,-6.3658,-6.3677,-6.3686,-6.3698,-6.358,-6.3769,-6.4086,-6.4119,-6.3708,-6.3704,-6.3701,0,-6.2929,-6.3091,-6.3242,-6.328,-6.3354,-6.3425,-6.3459,-6.3516,-6.3576,-6.3653,-6.3692,-6.3783,-6.3833,-6.3903,-6.3902,-6.3825,-6.4078,-6.3972,-6.4086,-6.4087,-6.4143,-6.4139,-6.4473,-6.4175,-6.4174,-6.4174,-6.4173,0,-6.3188,-6.3323,-6.3331,-6.3425,-6.3574,-6.3563,-6.3711,-6.3737,-6.3789,-6.3885,-6.3844,-6.3935,-6.3927,-6.4019,-6.4018,-6.4162,-6.4185,-6.4193,-6.4191,-6.4197,-6.4197,-6.4232,-6.4217,-6.4182,-6.418,-6.4179,-6.4177,0,-6.3434,-6.3444,-6.3606,-6.3662,-6.368,-6.3787,-6.3835,-6.3923,-6.3936,-6.4059,-6.4087,-6.4108,-6.4213,-6.4218,-6.434,-6.4339,-6.4515,-6.4495,-6.4494,-6.4491,-6.4605,-6.4595,-6.4974,-6.5023,-6.4692,-6.4695,-6.4697,0,-6.3599,-6.3702,-6.377,-6.3832,-6.3871,-6.3971,-6.4032,-6.4025,-6.409,-6.417,-6.4248,-6.435,-6.4431,-6.4602,-6.4627,-6.472,-6.4703,-6.4829,-6.4716,-6.4719,-6.4706,-6.47,-6.471,-6.4852,-6.4855,-6.4858,-6.4861,0,-6.3892,-6.3892,-6.3983,-6.4075,-6.4149,-6.4221,-6.4288,-6.4341,-6.4341,-6.4416,-6.4524,-6.4588,-6.4712,-6.4813,-6.4903,-6.4936,-6.4899,-6.4896,-6.4927,-6.4935,-6.4931,-6.4935,-6.4555,-6.4888,-6.4885,-6.4883,-6.4881,-6.488,-6.4103,-6.4193,-6.4255,-6.4356,-6.4406,-6.4469,-6.4555,-6.4579,-6.467,-6.4771,-6.4761,-6.4881,-6.494,-6.5058,-6.5098,-6.5191,-6.5147,-6.5193,-6.5204,-6.5216,-6.5229,-6.4915,-6.5207,-6.5206,-6.5206,-6.5205,-6.5204,0,-6.4395,-6.4432,-6.4526,-6.4621,-6.4701,-6.4659,-6.4731,-6.48,-6.4907,-6.4967,-6.5048,-6.5172,-6.527,-6.5303,-6.5398,-6.5466,-6.5452,-6.5492,-6.5487,-6.5495,-6.5262,-6.5226,-6.5502,-6.5502,-6.5502,-6.5502,-6.5502,-6.5502,-6.4556,-6.4705,-6.4713,-6.4885,-6.4921,-6.5039,-6.5084,-6.5142,-6.5189,-6.533,-6.5412,-6.5433,-6.5482,-6.558,-6.5668,-6.5675,-6.5712,-6.576,-6.576,-6.5541,-6.5512,-6.5483,-6.5449,-6.5768,-6.5768,-6.5985,-6.5987,-6.5989]}]]